CZ-2C DEB, 40291

Orbit data source: Space-Track

CZ-2C DEB, 40291 is space debris in SSO originally from a launch on Mon, 27 Oct 2014 UTC launched from the Jiuquan Satellite Launch Center, China (JSC). Debris objects in space refer to the collection of defunct objects orbiting the Earth. Examples of debris include non-operational satellites, rocket bodies, and fragments generated from explosions, collisions, or faulty payload assembly.

Loading next visibility...
Identifier
40291, 2014-066F
Orbit
SSO
Country
Flag of CNCN / PRC
Related business
Manufacturer
CALT
Mission
Spacecraft
Bus & Motor
Unknown
Mass
1 kg wet, 1 kg dry
Launch date (UTC)
2014-10-27 (11 years ago)
Launch vehicle
Unknown
Launch site
Jiuquan Satellite Launch Center, China (JSC)
Object type
Payload
Rocket body
Debris
Shape & HBR
Cone, 0.1 m
Radar Cross Section
0.025 m², Small (<0.1 m²)

Expand to show TLE details & history
Last TLE update: 6 hours ago

TLE from 6 hours ago
0 CZ-2C DEB
1 40291U 14066F   25351.91103255  .00002120  00000-0  66234-3 0  9994
2 40291  98.2619 341.7598 0156688  99.3466 262.5474 14.34914206579703
Epoch: 2025-12-17T21:51Z
TLE epoch observation values (Epoch: 2025-12-17T21:51:53.212Z)
Latitude
-0.00006°
Longitude
-72.98601°
Altitude
794.565 km
Speed
7.448 km/s
True Right ascension
22h 47m 02s
True Declination
0° 00' 00"
Sunlit
Object was in daylight at epoch
Visualization orbit readout
Latitude
Unknown
Longitude
Unknown
Altitude
Unknown
Speed
Unknown
Apparent Right ascension
Unknown
Apparent Declination
Unknown
Sunlit
N/A
Visualization observer readout
Local Sidereal Time
02:29:05
Azimuth
Unknown
Elevation
Unknown
Doppler factor
Unknown
Orbital elements
Apogee altitude
884.509 km
Perigee altitude
660.427 km
Semi-major axis
7,150.605 km
Eccentricity
0.01567
Inclination
98.2619°
RAAN
341.7598°
Arg. of periapsis
99.3466°
True anomaly
260.77185°
Mean anomaly
262.5474°
Eccentric anomaly
261.65914°
Mean motion
3.58946 °/min
Orbital period
100.29 mins
BSTAR
0.00066234
Loading maneuver chart data...
Computing Atmospheric mass density...
Loading historical data...
Loading historical data...
Loading historical data...
Loading historical data...
Loading historical data...
Loading historical data...
Loading historical data...
Other satellites on launch #66 in the year 2014 (2014-10-27 UTC)

Documentation

Showing up to 5 results
|